Simultaneous Nadir Overpasses (SNOs) Predictions

Prediction of SNOs between GOES-16 and NOAA-20 Satellite Orbit:

Table of predicted SNOs for the next 14.0 days since TLE Epoch: 8/2/2019
Index Date Time (GOES-16) GOES-16 Lat,Lon NOAA-20 Lat,Lon Distance(km) Time Diff (sec)
1 08/03/2019 18:22:38 0.03, -75.23 0.29, -74.19 119.20 80
2 08/05/2019 06:41:45 -0.04, -75.25 0.91, -79.45 478.98 80
3 08/06/2019 06:25:39 -0.03, -75.26 -0.09, -74.91 39.23 80
4 08/08/2019 18:26:10 0.04, -75.30 -0.05, -75.69 44.53 80
5 08/09/2019 18:10:05 0.04, -75.32 0.95, -71.16 473.96 80
6 08/11/2019 06:29:12 -0.05, -75.35 0.19, -76.43 123.09 80
7 08/12/2019 06:13:06 -0.05, -75.37 -0.81, -71.89 395.72 80
8 08/13/2019 18:32:23 0.06, -75.40 -0.33, -77.21 205.22 80
9 08/14/2019 18:16:17 0.06, -75.43 0.68, -72.67 314.08 80
10 08/16/2019 06:35:24 -0.06, -75.47 0.46, -77.95 281.71 80




NCC Satellite Simultaneous Nadir Overpasses (SNOs) Prediction Service
